• In Uzbekistan
  • List of Countries
  • For 7 days
  • Water Temperature
  • Satellite Maps
  • Weather Map
  • Weather Widgets
  • user-avatar
    Login

    Hourly Weather Salta

    Today, 23 February, Friday

    Time Temperature Precipitation Wind Pressure Humidity
    00:00 +20°C° 0 mm 1 mps 652 mmHg 75%
    01:00 +19°C° 0 mm 1 mps 652 mmHg 76%
    02:00 +19°C° 0 mm 1 mps 651 mmHg 77%
    03:00 +19°C° 0 mm 1 mps 651 mmHg 78%
    04:00 +18°C° 0 mm 1 mps 651 mmHg 78%
    05:00 +18°C° 0 mm 1 mps 651 mmHg 79%
    06:00 +19°C° 0 mm 1 mps 651 mmHg 74%
    07:00 +21°C° 0 mm 1 mps 652 mmHg 69%
    08:00 +22°C° 0 mm 1 mps 652 mmHg 65%
    09:00 +24°C° 0 mm 1 mps 653 mmHg 59%
    10:00 +25°C° 0 mm 2 mps 653 mmHg 54%
    11:00 +27°C° 0 mm 3 mps 653 mmHg 49%
    12:00 +27°C° 0 mm 3 mps 652 mmHg 48%
    13:00 +28°C° 0 mm 3 mps 652 mmHg 48%
    14:00 +28°C° 0 mm 3 mps 652 mmHg 47%
    15:00 +28°C° 0.1 mm 3 mps 651 mmHg 49%
    16:00 +27°C° 0.1 mm 3 mps 650 mmHg 51%
    17:00 +27°C° 0.1 mm 3 mps 650 mmHg 53%
    18:00 +25°C° 0.2 mm 2 mps 650 mmHg 59%
    19:00 +23°C° 0.2 mm 2 mps 650 mmHg 66%
    20:00 +21°C° 0.2 mm 1 mps 650 mmHg 72%
    21:00 +21°C° 0.3 mm 1 mps 650 mmHg 74%
    22:00 +20°C° 0.3 mm 1 mps 651 mmHg 76%
    23:00 +20°C° 0.3 mm 1 mps 651 mmHg 79%

    Tomorrow, 24 February, Saturday

    Time Temperature Precipitation Wind Pressure Humidity
    00:00 +20°C° 0.1 mm 1 mps 651 mmHg 79%
    01:00 +19°C° 0.1 mm 1 mps 651 mmHg 79%
    02:00 +19°C° 0.1 mm 1 mps 651 mmHg 80%
    03:00 +19°C° 0.2 mm 1 mps 651 mmHg 79%
    04:00 +18°C° 0.2 mm 1 mps 651 mmHg 79%
    05:00 +18°C° 0.2 mm 1 mps 650 mmHg 79%
    06:00 +19°C° 0.1 mm 1 mps 651 mmHg 74%
    07:00 +21°C° 0.1 mm 1 mps 652 mmHg 70%
    08:00 +22°C° 0.1 mm 1 mps 653 mmHg 65%
    09:00 +24°C° 0 mm 1 mps 653 mmHg 60%
    10:00 +25°C° 0 mm 2 mps 654 mmHg 55%
    11:00 +27°C° 0 mm 2 mps 654 mmHg 49%
    12:00 +27°C° 0.1 mm 2 mps 654 mmHg 50%
    13:00 +27°C° 0.1 mm 2 mps 653 mmHg 51%
    14:00 +27°C° 0.1 mm 3 mps 652 mmHg 52%
    15:00 +26°C° 0.1 mm 2 mps 652 mmHg 55%
    16:00 +25°C° 0.1 mm 2 mps 651 mmHg 58%
    17:00 +24°C° 0.1 mm 2 mps 651 mmHg 61%
    18:00 +23°C° 0.2 mm 2 mps 651 mmHg 65%
    19:00 +22°C° 0.2 mm 1 mps 651 mmHg 70%
    20:00 +21°C° 0.2 mm 1 mps 652 mmHg 74%
    21:00 +20°C° 0.2 mm 1 mps 652 mmHg 75%
    22:00 +20°C° 0.2 mm 1 mps 652 mmHg 76%
    23:00 +20°C° 0.2 mm 1 mps 653 mmHg 77%

    Day after tomorrow, 25 February, Sunday

    Time Temperature Precipitation Wind Pressure Humidity
    00:00 +19°C° 0.1 mm 1 mps 653 mmHg 78%
    01:00 +19°C° 0.1 mm 1 mps 652 mmHg 78%
    02:00 +19°C° 0.1 mm 1 mps 652 mmHg 78%
    03:00 +19°C° 0.1 mm 1 mps 652 mmHg 79%
    04:00 +18°C° 0.1 mm 1 mps 652 mmHg 79%
    05:00 +18°C° 0.1 mm 1 mps 652 mmHg 79%
    06:00 +19°C° 0.1 mm 1 mps 652 mmHg 76%
    07:00 +20°C° 0.1 mm 1 mps 653 mmHg 72%
    08:00 +21°C° 0.1 mm 1 mps 654 mmHg 69%
    09:00 +23°C° 0 mm 1 mps 654 mmHg 63%
    10:00 +25°C° 0 mm 2 mps 654 mmHg 57%
    11:00 +27°C° 0 mm 2 mps 655 mmHg 52%
    12:00 +27°C° 0.1 mm 2 mps 654 mmHg 53%
    13:00 +27°C° 0.1 mm 3 mps 653 mmHg 54%
    14:00 +26°C° 0.1 mm 3 mps 652 mmHg 55%
    15:00 +26°C° 0.2 mm 3 mps 652 mmHg 57%
    16:00 +26°C° 0.2 mm 3 mps 651 mmHg 59%
    17:00 +25°C° 0.2 mm 2 mps 651 mmHg 62%
    18:00 +24°C° 0.4 mm 2 mps 651 mmHg 69%
    19:00 +22°C° 0.4 mm 1 mps 651 mmHg 75%
    20:00 +21°C° 0.4 mm 1 mps 651 mmHg 82%
    21:00 +20°C° 0.3 mm 1 mps 651 mmHg 83%
    22:00 +20°C° 0.3 mm 1 mps 652 mmHg 83%
    23:00 +20°C° 0.3 mm 1 mps 652 mmHg 84%

    26 February, Monday

    Time Temperature Precipitation Wind Pressure Humidity
    00:00 +20°C° 0 mm 1 mps 652 mmHg 84%
    01:00 +19°C° 0 mm 1 mps 651 mmHg 84%
    02:00 +19°C° 0 mm 1 mps 651 mmHg 84%
    03:00 +19°C° 0 mm 1 mps 651 mmHg 84%
    04:00 +19°C° 0 mm 1 mps 651 mmHg 84%
    05:00 +18°C° 0 mm 1 mps 650 mmHg 84%
    06:00 +20°C° 0 mm 1 mps 651 mmHg 79%
    07:00 +21°C° 0 mm 1 mps 652 mmHg 74%
    08:00 +22°C° 0 mm 1 mps 652 mmHg 69%
    09:00 +24°C° 0 mm 1 mps 653 mmHg 64%
    10:00 +25°C° 0 mm 2 mps 653 mmHg 58%
    11:00 +27°C° 0 mm 2 mps 653 mmHg 52%
    12:00 +28°C° 0.2 mm 3 mps 652 mmHg 51%
    13:00 +28°C° 0.2 mm 3 mps 651 mmHg 50%
    14:00 +29°C° 0.2 mm 3 mps 651 mmHg 49%
    15:00 +28°C° 0.7 mm 3 mps 650 mmHg 54%
    16:00 +27°C° 0.7 mm 3 mps 649 mmHg 58%
    17:00 +26°C° 0.7 mm 3 mps 649 mmHg 62%
    18:00 +24°C° 1.2 mm 2 mps 649 mmHg 70%
    19:00 +23°C° 1.2 mm 2 mps 649 mmHg 77%
    20:00 +21°C° 1.2 mm 1 mps 649 mmHg 85%
    21:00 +21°C° 0.7 mm 1 mps 650 mmHg 86%
    22:00 +20°C° 0.7 mm 1 mps 650 mmHg 86%
    23:00 +20°C° 0.7 mm 1 mps 650 mmHg 87%

    27 February, Tuesday

    Time Temperature Precipitation Wind Pressure Humidity
    00:00 +20°C° 0.2 mm 1 mps 650 mmHg 87%
    01:00 +20°C° 0.2 mm 1 mps 650 mmHg 87%
    02:00 +17°C° 0.2 mm 0 mps 650 mmHg 87%
    03:00 +17°C° 0 mm 0 mps 649 mmHg 87%
    04:00 +17°C° 0 mm 0 mps 649 mmHg 87%
    05:00 +17°C° 0 mm 0 mps 649 mmHg 88%
    06:00 +20°C° 0 mm 1 mps 650 mmHg 83%
    07:00 +21°C° 0 mm 1 mps 651 mmHg 78%
    08:00 +22°C° 0 mm 1 mps 651 mmHg 73%
    09:00 +24°C° 0 mm 1 mps 651 mmHg 67%
    10:00 +25°C° 0 mm 2 mps 652 mmHg 62%
    11:00 +27°C° 0 mm 3 mps 652 mmHg 56%
    12:00 +27°C° 0.4 mm 3 mps 651 mmHg 55%
    13:00 +28°C° 0.4 mm 3 mps 651 mmHg 55%
    14:00 +28°C° 0.4 mm 3 mps 650 mmHg 54%
    15:00 +27°C° 0.6 mm 3 mps 650 mmHg 59%
    16:00 +27°C° 0.6 mm 3 mps 649 mmHg 64%
    17:00 +26°C° 0.6 mm 3 mps 648 mmHg 69%
    18:00 +24°C° 0.9 mm 2 mps 649 mmHg 75%
    19:00 +22°C° 0.9 mm 1 mps 649 mmHg 82%
    20:00 +21°C° 0.9 mm 1 mps 649 mmHg 88%
    21:00 +20°C° 0.6 mm 1 mps 649 mmHg 88%
    22:00 +20°C° 0.6 mm 1 mps 650 mmHg 88%
    23:00 +20°C° 0.6 mm 1 mps 650 mmHg 88%

    28 February, Wednesday

    Time Temperature Precipitation Wind Pressure Humidity
    00:00 +20°C° 0.4 mm 1 mps 650 mmHg 88%
    01:00 +20°C° 0.4 mm 1 mps 650 mmHg 88%
    02:00 +19°C° 0.4 mm 1 mps 650 mmHg 88%
    03:00 +19°C° 0.2 mm 1 mps 650 mmHg 89%
    04:00 +19°C° 0.2 mm 1 mps 650 mmHg 89%
    05:00 +19°C° 0.2 mm 1 mps 650 mmHg 90%
    06:00 +20°C° 0 mm 1 mps 650 mmHg 87%
    07:00 +21°C° 0 mm 1 mps 651 mmHg 85%
    08:00 +21°C° 0 mm 1 mps 651 mmHg 82%
    09:00 +23°C° 0.1 mm 2 mps 651 mmHg 75%
    10:00 +24°C° 0.1 mm 2 mps 652 mmHg 69%
    11:00 +26°C° 0.1 mm 3 mps 652 mmHg 62%
    12:00 +26°C° 0.4 mm 3 mps 651 mmHg 61%
    13:00 +26°C° 0.4 mm 3 mps 651 mmHg 61%
    14:00 +27°C° 0.4 mm 3 mps 650 mmHg 60%
    15:00 +26°C° 0.5 mm 3 mps 650 mmHg 62%
    16:00 +26°C° 0.5 mm 3 mps 649 mmHg 65%
    17:00 +26°C° 0.5 mm 3 mps 649 mmHg 67%
    18:00 +24°C° 1.1 mm 2 mps 649 mmHg 74%
    19:00 +21°C° 1.1 mm 2 mps 649 mmHg 81%
    20:00 +21°C° 1.1 mm 1 mps 649 mmHg 89%
    21:00 +21°C° 0.5 mm 1 mps 649 mmHg 89%
    22:00 +20°C° 0.5 mm 1 mps 650 mmHg 90%
    23:00 +18°C° 0.5 mm 0 mps 650 mmHg 90%
    Show more